Location: Arrodets-la-Barthe
(43.0306°N, 0.2829°E)
Time: 02:35:12
(UTC+00:00)

NOAA 19 - Pass Details

Date: 03 April 2023
Orbit: 840 x 859 km, 99.1° (Epoch: 29 May)

Event Time Altitude Azimuth Distance (km) Brightness Sun altitude
Exits shadow 21:24:44 - 219° (SW) 3,324 8.3 -29.8°
Reaches altitude 10° 21:28:27 10° 247° (WSW) 2,465 7.8 -30.3°
Maximum altitude 21:30:40 12° 271° (W) 2,296 7.9 -30.6°
Drops below altitude 10° 21:32:53 10° 296° (WNW) 2,468 8.4 -30.9°
Sets 21:36:53 0° 325° (NW) 3,407 9.5 -31.4°
